Location: G�ppingen
(48.7089°N, 9.6563°E)
Time: 05:15:25
(UTC+01:00)

ISS - Pass Details

Date: 31 October 2019
Orbit: 412 x 421 km, 51.6° (Epoch: 17 November)

Event Time Altitude Azimuth Distance (km) Brightness Sun altitude
Exits shadow 04:57:46 69° 92° (E) 457 -3.5 -21.5°
Drops below altitude 10° 05:00:49 10° 70° (ENE) 1,509 0.1 -21.0°
Sets 05:02:55 0° 69° (ENE) 2,375 1.4 -20.7°
